Location: Six Mile Lake
(44.9000°N, 79.7170°W)
Time: 06:10:19
(UTC-04:00)

ESTCUBE 1 - Pass Details

Date: 30 June 2022
Orbit: 645 x 657 km, 97.9° (Epoch: 15 August)

Event Time Altitude Azimuth Distance (km) Brightness Sun altitude
Exits shadow 22:00:49 - 106° (ESE) 2,326 ? -7.9°
Reaches altitude 10° 22:01:53 10° 96° (E) 2,047 ? -8.0°
Maximum altitude 22:04:24 15° 61° (ENE) 1,738 ? -8.4°
Drops below altitude 10° 22:06:56 10° 26° (NNE) 2,058 ? -8.7°
Sets 22:09:59 0° 4° (N) 2,976 ? -9.0°
